Home   Weather   Karlstad   Past weeks

Flag for Sweden Past Weather in Karlstad, Sweden — Yesterday and Last 2 Weeks

43 °F

Passing clouds.

Feels Like: 37 °F
Forecast: 42 / 45 °F
Wind: 9 mph from Northeast

Location: Karlstad

Current Time: Oct 20, 2016 at 9:50:15 PM

Latest Report: Oct 20, 2016 at 9:20 PM

Visibility: N/A

Pressure: 30.33 "Hg

Humidity: 76%

Dew Point: 36 °F

Location of KarlstadLocation

Past Weather in Karlstad — Graph


Karlstad Temperature Yesterday

Maximum temperature yesterday: 48 °F (at 1:50 PM)
Minimum temperature yesterday: 45 °F (at 12:20 AM)
Average temperature yesterday: 45 °F

High & Low Weather Summary for the Past Weeks

High55 °F (Oct 6, 1:50 PM)100% (Oct 9, 6:20 PM)30.74 "Hg (Oct 9, 6:20 PM)
Low32 °F (Oct 6, 2:50 AM)23% (Oct 6, 2:20 PM)30.09 "Hg (Oct 19, 2:20 AM)
Average44 °F78%30.43 "Hg
* Reported Oct 5 8:20 PM — Oct 20 8:20 PM, Karlstad, Weather by CustomWeather, © 2016

Note: Actual official high and low records may vary slightly from our data, if they occured in-between our weather recording intervals... More about our weather records


Karlstad Weather History for the Previous 24 Hours

Scroll right to see more
Time TempWeatherWind HumidityBarometerVisibility
8:20 PM
Thu, Oct 20
43 °FPassing clouds.9 mph71%30.30 "HgN/A
7:50 PM43 °FPassing clouds.10 mph76%30.30 "HgN/A
7:20 PM43 °FPassing clouds.9 mph76%30.30 "HgN/A
6:50 PM43 °FPassing clouds.8 mph76%30.30 "HgN/A
6:28 PM43 °FPassing clouds.8 mph76%30.30 "HgN/A
5:50 PM45 °FPassing clouds.8 mph71%30.30 "HgN/A
5:20 PM45 °FPartly sunny.9 mph71%30.30 "HgN/A
4:50 PM45 °FPartly sunny.9 mph76%30.30 "HgN/A
4:20 PM45 °FPartly sunny.10 mph76%30.30 "HgN/A
3:50 PM45 °FPartly sunny.9 mph76%30.30 "HgN/A
3:20 PM45 °FPartly sunny.12 mph81%30.30 "HgN/A
2:50 PM45 °FPartly sunny.12 mph87%30.30 "HgN/A
2:20 PM45 °FPartly sunny.12 mph87%30.30 "HgN/A
1:50 PM45 °FBroken clouds.10 mph87%30.30 "HgN/A
1:20 PM45 °FDrizzle. Overcast.9 mph87%30.30 "HgN/A
12:50 PM45 °FMore clouds than sun.10 mph87%30.30 "HgN/A
12:20 PM45 °FOvercast.12 mph87%30.27 "HgN/A
11:50 AM45 °FPartly sunny.10 mph93%30.27 "HgN/A
11:20 AM45 °FPartly sunny.9 mph93%30.27 "HgN/A
10:50 AM45 °FPartly sunny.9 mph93%30.27 "HgN/A
10:20 AM45 °FDrizzle. Overcast.9 mph93%30.27 "HgN/A
9:50 AM45 °FFog.9 mph93%30.27 "Hg6 mi
9:20 AM45 °FFog.9 mph93%30.24 "Hg6 mi
8:50 AM43 °FLow clouds.9 mph100%30.24 "HgN/A
8:20 AM43 °FLight rain. Low clouds.9 mph100%30.24 "Hg3 mi
7:59 AM43 °FDrizzle. Low clouds.9 mph100%30.24 "Hg3 mi
7:20 AM45 °FLow clouds.12 mph93%30.24 "HgN/A
6:50 AM45 °FLow clouds.10 mph93%30.21 "HgN/A
6:20 AM45 °FLow clouds.12 mph93%30.21 "HgN/A
5:50 AM45 °FLow clouds.12 mph87%30.21 "HgN/A
5:20 AM45 °FLow clouds.12 mph87%30.21 "HgN/A
4:50 AM45 °FOvercast.12 mph93%30.21 "HgN/A
4:20 AM45 °FOvercast.12 mph93%30.21 "HgN/A
3:50 AM45 °FLow clouds.12 mph93%30.21 "HgN/A
3:20 AM45 °FOvercast.12 mph93%30.21 "HgN/A
2:50 AM45 °FLight rain. Low clouds.10 mph93%30.21 "HgN/A
2:20 AM45 °FLight rain. Overcast.9 mph93%30.21 "HgN/A
1:50 AM45 °FDrizzle. Mostly cloudy.9 mph93%30.21 "HgN/A
1:20 AM45 °FDrizzle. Overcast.10 mph100%30.21 "HgN/A
12:50 AM45 °FDrizzle. Low clouds.9 mph100%30.21 "HgN/A
12:20 AM45 °FOvercast.10 mph100%30.21 "HgN/A
11:50 PM
Wed, Oct 19
45 °FDrizzle. Mostly cloudy.9 mph100%30.21 "HgN/A
11:20 PM45 °FOvercast.9 mph100%30.21 "HgN/A
10:50 PM45 °FPassing clouds.7 mph100%30.21 "HgN/A
10:20 PM45 °FDrizzle. Fog.8 mph100%30.21 "Hg4 mi
9:50 PM45 °FPassing clouds.9 mph100%30.21 "Hg2 mi
9:20 PM45 °FPassing clouds.9 mph100%30.18 "Hg3 mi
Weather by CustomWeather, © 2016

See weather overviewHow to use our weather pages